Location: ??????????
(54.8537°N, 38.8755°E)
Time: 15:56:13
(UTC+00:00)

Tiros 1 - All Passes

Search period start: 13 September 2024 00:00
Search period end: 23 September 2024 00:00
Orbit: 623 x 655 km, 48.4° (Epoch: 13 September)

Date Brightness Start Highest point End Pass type
(mag) Time Alt. Az. Time Alt. Az. Time Alt. Az.
13 Sep - 14:10:40 10° SSW 14:14:08 21° SSE 14:17:37 10° ESE daylight
13 Sep - 15:51:10 10° WSW 15:55:22 36° S 15:59:38 10° ESE daylight
13 Sep - 17:32:39 10° WSW 17:36:48 33° SSW 17:40:58 10° SE visible
13 Sep - 19:15:01 10° WSW 19:17:56 17° SSW 19:20:51 10° S visible
14 Sep - 12:54:23 10° SSE 12:56:16 12° SE 12:58:08 10° ESE daylight
14 Sep - 14:33:17 10° SW 14:37:14 29° SSE 14:41:13 10° ESE daylight
14 Sep - 16:14:22 10° WSW 16:18:36 37° S 16:22:54 10° ESE visible
14 Sep - 17:56:08 10° WSW 17:59:57 26° SSW 18:03:48 10° SE visible
15 Sep - 13:15:56 10° SSW 13:19:13 20° SSE 13:22:30 10° ESE daylight
15 Sep - 14:56:14 10° SW 15:00:25 35° S 15:04:38 10° ESE daylight
15 Sep - 16:37:40 10° WSW 16:41:50 34° S 16:46:02 10° SE visible
15 Sep - 18:19:52 10° WSW 18:23:00 18° SSW 18:26:09 10° SSE visible
16 Sep - 12:00:11 10° SSE 12:01:22 11° SE 12:02:31 10° SE daylight
16 Sep - 13:38:24 10° SW 13:42:16 27° SSE 13:46:10 10° ESE daylight
16 Sep - 15:19:22 10° WSW 15:23:37 37° S 15:27:55 10° ESE daylight
16 Sep - 17:01:05 10° WSW 17:04:59 27° SSW 17:08:55 10° SE visible
16 Sep - 18:44:38 10° SW 18:45:55 11° SW 18:47:13 10° SSW visible
17 Sep - 12:21:11 10° SSW 12:24:15 18° SSE 12:27:20 10° ESE daylight
17 Sep - 14:01:17 10° SW 14:05:24 34° S 14:09:35 10° ESE daylight
17 Sep - 15:42:39 10° WSW 15:46:50 35° S 15:51:03 10° SE daylight
17 Sep - 17:24:44 10° WSW 17:28:03 20° SSW 17:31:22 10° SSE visible
18 Sep - 12:43:30 10° SSW 12:47:16 25° SSE 12:51:04 10° ESE daylight
18 Sep - 14:24:23 10° WSW 14:28:37 37° S 14:32:52 10° ESE daylight
18 Sep - 16:06:01 10° WSW 16:09:59 29° SSW 16:13:58 10° SE visible
18 Sep - 17:49:03 10° WSW 17:50:58 12° SW 17:52:53 10° SSW visible
19 Sep - 11:26:27 10° S 11:29:16 16° SSE 11:32:06 10° ESE daylight
19 Sep - 13:06:17 10° SW 13:10:22 33° SSE 13:14:30 10° ESE daylight
19 Sep - 14:47:35 10° WSW 14:51:47 36° S 14:56:01 10° ESE daylight
19 Sep - 16:29:34 10° WSW 16:33:03 21° SSW 16:36:31 10° SSE visible
20 Sep - 11:48:36 10° SSW 11:52:14 24° SSE 11:55:55 10° ESE daylight
20 Sep - 13:29:20 10° WSW 13:33:32 37° S 13:37:47 10° ESE daylight
20 Sep - 15:10:55 10° WSW 15:14:56 30° SSW 15:18:58 10° SE daylight
20 Sep - 16:53:38 10° WSW 16:55:59 14° SW 16:58:19 10° S visible
21 Sep - 10:31:44 10° S 10:34:15 15° SE 10:36:47 10° ESE daylight
21 Sep - 12:11:16 10° SW 12:15:18 31° SSE 12:19:22 10° ESE daylight
21 Sep - 13:52:30 10° WSW 13:56:42 36° S 14:00:57 10° ESE daylight
21 Sep - 15:34:23 10° WSW 15:37:59 23° SSW 15:41:36 10° SSE daylight
22 Sep - 10:53:39 10° SSW 10:57:11 22° SSE 11:00:42 10° ESE daylight
22 Sep - 12:34:15 10° WSW 12:38:26 36° S 12:42:39 10° ESE daylight
22 Sep - 14:15:46 10° WSW 14:19:50 32° SSW 14:23:55 10° SE daylight
22 Sep - 15:58:15 10° WSW 16:00:56 15° SSW 16:03:36 10° S visible
